Forside
METAR-TAF:

METAR-TAF

Lufthavne :

Ford Airport

Iron Mountain / Kingsford, Michigan, USA

Breddekreds: 45-48-51N, længdekreds: 088-06-32W, højde: 360 m

Aktuelle vejr

Denne rapport blev lavet for 1 time og 9 minutter siden, kl. 01:54 UTC
Vind 4 kt fra sydøst
Temperatur 22°C
Fugtighed 73%
Tryk 1012 hPa
Sigt: 16.1 km
skyfri

METAR: KIMT 250154Z AUTO 14004KT 10SM CLR 22/17 A2987 RMK AO2 SLP111 T02170167

Tid: 23:03 (03:03 UTC)


TAF: fraværende

Vejrobservationer og prognoser fra mere end 4000 lufthavne (METAR og TAF).

De gule og røde prikker repræsenterer de meteorologiske stationer.

Flyt musen over at se navnet på stationen.

Så klik over at se vejr observationer og prognoser.

At skifte det kort: Klik på de grønne knapper med et sort kors for at zoome ind; på den grønne knap med en bindestreg for at zoome ud; eller på de grønne pile for tilstødende kort.


METAR-TAF: